62P/Tsuchinshan 1 (2023)

Japanese version
Home page
Updated on November 4, 2020

---------------------------------------------------------------------

* Profile

* Orbital Elements

Epoch 2024 Jan. 11.0 TT = JDT 2460320.5
T 2023 Dec. 25.06776 TT                                 MPCW
q   1.2649679            (2000.0)            P               Q
n   0.15941766     Peri.   47.30738     -0.43550180     -0.89689508
a   3.3685663      Node    68.65880     +0.79988038     -0.42475972
e   0.6244788      Incl.    4.73732     +0.41295225     -0.12311943
P   6.18
From 1173 observations 2004 Sept. 14-2018 Feb. 24, mean residual 0".7.
     Nongravitational parameters A1 = +0.76, A2 = -0.0899.

* Finding Charts

* Magnitudes Graph

        m1 = 9.5 + 5 log d + 30.0 log r  [   ,-78]  (             - 2023 Oct.  8)
        m1 = 0.9 + 5 log d + 75   log r  [-78,  0]  (2023 Oct.  8 - 2023 Dec. 25)
        m1 = 5.5 + 5 log d + 30.0 log r  [  0,   ]  (2023 Dec. 25 -             )

---------------------------------------------------------------------

The orbital elements are published on M.P.E.C. 2018-D91.
The charts are made with StellaNavigator Ver.10 (AstroArts).
The magnitudes graphs are made with Comet for Windows.

---------------------------------------------------------------------

Copyright(C) Seiichi Yoshida (comet@aerith.net). All rights reserved.